星链-33633 (STARLINK-33633)

导读

STARLINK-33633是美国SpaceX星链星座的一颗卫星,于2025年3月26日发射升空。作为星链互联网星座的组成部分,它承担着为全球提供低延迟、高速宽带互联网服务的任务,依托低轨部署优势,能覆盖偏远区域,补充传统网络覆盖盲区,进一步推动星链星座的组网进程,强化星座整体服务能力。

基本信息
目录编号:
63382
目录名称:
STARLINK-33633
国际标识:
2025-063V
轨道中心:
EARTH
卫星名称:
星链-33633
卫星全名:
星链-33633 (STARLINK-33633)
卫星状态:
已陨落 最后检测时间 2026-04-26
发射日期:
2025-03-26 UTC
国别 :
美国 (US)
星等 :
--
轨道信息
数据来源 国际轨道数据
星历时间: 2026-04-26T22:13:01+0800
轨道信息已过期48天
半长轴: 6553.117km
偏心率: 0.0005585
轨道倾角: 53.131°
近地点辐角 163.309°
升交点赤经 158.172°
平近点角 196.814°
近地点: 171.32km
远地点: 178.64km
周期: 87.990分钟
每日圈数: 16.365563
详细信息
固有亮度:
5
最大亮度:
2.5
卫星平台:
Starlink V1.0
覆盖范围:
全球
运营商:
太空探索技术公司
运营商所在国:
美国
制造商(研发单位):
太空探索技术公司
制造商所在国:
美国
使用方式:
暂无
卫星简介
Starlink 计划是 SpaceX 推出的全球卫星互联网项目,通过发射低轨道卫星,为全球尤其是偏远地区提供高速、低延迟的互联网服务。自 2019 年起,Starlink 已部署数千颗卫星,旨在缩小全球数字鸿沟,推动互联网普及。该项目还为军事、航空等行业提供通信支持,带来广泛经济效益。